sat.trackr.live / text

‹ back to catalog

STARLINK-36169

NORAD 66929 · 2025-286E

PAYLOAD ACTIVE UNKNOWN

§ Identity

Operator
Country
US
Launch date
2025-12-07
Launch site
AFWTR
Launch vehicle
Mass (kg)
RCS (m²)

Purposes: comms

External: N2YO · Heavens-Above · Gunter

§ Orbital elements

Epoch: 2026-09-20T03:02:09.746016Z

Period
93.85 min
Inclination
53.1567°
Eccentricity
0.0001387
Mean motion
15.34436645 rev/d
Perigee alt
461.6 km
Apogee alt
463.5 km
Semi-major
6,840.7 km
B*
7.3916e-4
RAAN
171.2183°
Arg perigee
209.0995°
Mean anomaly
150.9930°
Rev number
4,524

§ Raw data

STARLINK-361691 66929U 25286E   26263.12650169  .00024709  00000+0  73916-3 0  99942 66929  53.1567 171.2183 0001387 209.0995 150.9930 15.34436645 45240

JSON: /api/v1/satellites/66929 · /tle

For live sub-satellite position, see the globe view (requires WebGL).

§ Visibility from observer

Set your observer location to see the next 7 days of passes ≥ 10°. The values pass through the URL so the page stays shareable.

No JS? Fill the form by hand. The geolocation button needs JavaScript.